STARLINK-32000, 60289

Orbit data source: Space-Track

STARLINK-32000, 60289 is a payload satellite owned by SpaceX/Seattle (US) in LEO that was launched on Sun, 28 Jul 2024 UTC via an FALCON 9 launch vehicle from the Air Force Eastern Test Range (AFETR). Payload-class satellites include a variety of spacecraft equipped with specific instruments for various scientific and technological missions. These include communications satellites like Starlink; space stations such as the ISS; scientific satellites like the Hubble; Earth observation satellites from companies like Planet Labs, Umbra, and HawkEye 360; GPS; miniature CubeSats for education and research; and military/defense satellites.

Loading next visibility...
Identifier
60289, 2024-132M
Orbit
LEO
Country
Flag of USUS
Related business
Manufacturer
SpaceX/Seattle
Mission
Operational Commercial Communications
Bus & Motor
STARLINK V2M, Unknown motor
Mass
730 kg wet, ~700 kg dry
Launch date (UTC)
2024-07-28 (1 year ago)
Launch vehicle
FALCON 9
Launch site
Air Force Eastern Test Range (AFETR)
Object type
Payload
Rocket body
Debris
Shape & HBR
Box + 2 Pan, 17.7 m
Radar Cross Section
33.884 m², Large (>1 m²)

Expand to show TLE details & history
Last TLE update: 14 hours ago

TLE from 14 hours ago
0 STARLINK-32000
1 60289U 24132M   25304.66085911 -.00000758  00000-0 -13473-4 0  9991
2 60289  53.1612 291.8906 0001239  88.8312 271.2830 15.30192993 71806
Epoch: 2025-10-31T15:51Z
TLE epoch observation values (Epoch: 2025-10-31T15:51:38.227Z)
Latitude
-0.00006°
Longitude
13.77918°
Altitude
476.117 km
Speed
7.629 km/s
True Right ascension
19h 27m 33s
True Declination
0° 00' 00"
Sunlit
Object was in daylight at epoch
Visualization orbit readout
Latitude
Unknown
Longitude
Unknown
Altitude
Unknown
Speed
Unknown
Apparent Right ascension
Unknown
Apparent Declination
Unknown
Sunlit
N/A
Visualization observer readout
Local Sidereal Time
02:00:17
Azimuth
Unknown
Elevation
Unknown
Doppler factor
Unknown
Orbital elements
Apogee altitude
476.341 km
Perigee altitude
474.643 km
Semi-major axis
6,853.629 km
Eccentricity
0.00012
Inclination
53.1612°
RAAN
291.8906°
Arg. of periapsis
88.8312°
True anomaly
271.26881°
Mean anomaly
271.283°
Eccentric anomaly
271.2759°
Mean motion
3.82527 °/min
Orbital period
94.11 mins
BSTAR
-0.000013473
Loading maneuver chart data...
Computing Atmospheric mass density...
Loading historical data...
Loading historical data...
Loading historical data...
Loading historical data...
Loading historical data...
Loading historical data...
Loading historical data...

Documentation

Showing up to 5 results
|